Location: Melizzano
(41.1500°N, 14.5000°E)
Time: 08:24:37
(UTC+00:00)

Cosmos 1607 - Pass Details

Date: 11 May 2021
Orbit: 909 x 993 km, 65.0° (Epoch: 20 June)

Event Time Altitude Azimuth Distance (km) Brightness Sun altitude
Exits shadow 22:26:51 60° 76° (ENE) 1,122 4.2 -30.3°
Drops below altitude 10° 22:32:24 10° 37° (NE) 2,761 6.9 -30.4°
Sets 22:35:01 0° 35° (NE) 3,714 7.7 -30.5°
